Weather in Barkol

China     43°35′47″N   93°01′12″E
temp.,
°C
wind,
m/s
gust,
m/s
humid.,
%
clouds,
%
prec.,
mm/h
press.,
hPa
HPBL,
m
8 march, mon
mon800:00−8sse222337 0.0 101921
03:00−7sse2224100 0.0 101821
06:00−7s2224100 0.0 101821
09:00−2s2240100 0.0 101888
12:00−1s3334100 0.0 1017352
15:00−1ssw2234100 0.0 1016321
18:00−5sse3340100 0.0 101829
21:00−5sse1229100 0.0 102027
9 march, tue
tue900:00−6s1127100 0.0 102121
03:00−7nw0129100 0.0 102321
06:00−9nne114879 0.0 102521
09:00−6n11670 0.0 1026141
12:00−4nnw22493 0.0 1024406
15:00−4nnw224073 0.0 1022391
18:00−6ne115687 0.0 102338
21:00−6s1151100 0.0 102321
10 march, wed
wed1000:00−7s224687 0.0 102221
03:00−7s33470 0.0 102121
06:00−8s33510 0.0 102124
09:00−3ssw334435 0.0 1020163
12:00−1sw334461 0.0 1017632
15:00−1ssw224717 0.0 1015627
18:00−5sse23649 0.0 101627
21:00−5s33430 0.0 101726
11 march, thu
thu1100:00−5s233647 0.0 101721
03:00−5se233145 0.0 101621
06:00−5sse333172 0.0 101622
09:000sse3333100 0.0 101577
12:00+2s333398 0.0 1013430
15:00+2ssw34412 0.0 1011463
18:00−2sse44441 0.0 101152
21:00−1sse443840 0.0 101440
12 march, fri
fri1200:00−4nw125468 0.0 101948
03:00−8wsw1279100 0.0 102258
06:00−6e2272100 0.0 102343
09:00−4nne1163100 0.0 102385
12:000n224986 0.0 1020160
15:000nnw115599 0.0 1017262
18:00−2ene116999 0.0 101722
21:00−2s125573 0.0 101721